Location: Cicognara
(44.9500°N, 10.4667°E)
Time: 05:20:30
(UTC+00:00)

MetOp-B - Pass Details

Date: 20 June 2021
Orbit: 820 x 820 km, 98.7° (Epoch: 28 July)

Event Time Altitude Azimuth Distance (km) Brightness Sun altitude
Exits shadow 19:45:57 - 151° (SSE) 2,806 6.3 -6.1°
Reaches altitude 10° 19:46:58 10° 150° (SSE) 2,411 6.0 -6.2°
Maximum altitude 19:52:12 60° 71° (ENE) 936 4.3 -6.9°
Drops below altitude 10° 19:57:29 10° 353° (N) 2,427 7.5 -7.5°
Sets 19:59:52 0° 350° (N) 3,364 8.3 -7.8°
